"Pseudo-MPEC" for P113ccK

Created 2020 Aug 2 1:07:16 UT using Find_Orb

Click here for an explanation of pseudo-MPECs

 
 Astrometry: 
     P113ccK  C2020 07 25SP_hDa0\CUFRk#q'?\vW]X2487SvB,[AstrometryNJC_`@n-r`dF51
     P113ccK  C2020 07 25iA)=acsuRe2HbD$hSm#lSC::o%8redacted;B.9I'WvVcbC1+V_NF51
     P113ccK  C2020 07 256lA9^t\x5+SnCOhCcdCOE(_^VuPw44LJf;U?/RH1n7k8knlT2i)1F51
     P113ccK  C2020 07 25qho(=Eclick%Q3QUTFdsU=vAe32W$ZI2GlpX8(FVMK-;W=o#'B3xF51
     P113ccK KC2020 07 26Td+fAc!EvH7FZU^bU:jhere'+8?Tov(yo\=#^dX]:O``^DI:99u;L01
     P113ccK KC2020 07 26x34R(h(eAw!^R$wp\Z0cJWHHbas]VKJDW,39q.ksmCQj9h$#*hMaL01
     P113ccK KC2020 07 266OARkn5Gs_F*E3D=A5jh2AXKc7(forn%//o^+GOS6Q'uw1@dU7_DL01
     P113ccK IC2020 07 26'NV#`'fw/4VxKW]r,j.]q]4)XR8I8]+@9.uNX^=4Wo`4R2tBu2n2L01
     P113ccK KC2020 07 26FQDSinELSe@aE;i#S,80!RD-?*mQxexplanationQ)$^rr)yKHsfL01
     P113ccK  C2020 07 26.45490 03 30 38.47 +19 37 40.2    ~7QBb 21.1 GVNEOCPI52
     P113ccK  C2020 07 26.45942 03 30 39.11 +19 37 47.3    ~7QBb 20.5 GVNEOCPI52
     P113ccK  C2020 07 26.47597 03 30 41.91 +19 38 10.3    ~7QBb 21.1 GVNEOCPI52
     P113ccK  C2020 08 01nh0KA=RroPYhIc[T;;,D@DqlNJrPC8D1HpR?g*7]5J%^4`9)y(BCF51
     P113ccK  C2020 08 01ShK#`Fy1GJ=f8WO7(Tup:hSpg[81h[6kA8k@9Bc@b!B@P3*.LywYF51
     P113ccK  C2020 08 01o;bO]CfOX@_qw[5qCj9cuL?Y4kXeK(*@D3#gS,+2MD]$%ruI=hf8F51

Station data:
(F51) Pan-STARRS 1, Haleakala  (N20.707235 W156.255910)  US/Hawaii.
   Observers N. Primak, A. Schultz, S. Watters, J. Thiel, T. Goggia. Measurer
   PS1 Science Consortium. 1.8-m Ritchey-Chrétien + CCD.
(I52) Steward Observatory, Mt. Lemmon Station  (N32.442547 W110.788920)
   US/Arizona.  Observers T. A. Pruyne, B. M. Africano, E. J. Christensen, G.
   A. Farneth, D. C. Fuls, A. R. Gibbs, A. D. Grauer, H. Gröller, J. A.
   Johnson, R. A. Kowalski, S. M. Larson, G. J. Leonard, D. Rankin, R. L.
   Seaman, F. C. Shelly. 1.0-m reflector + CCD.
(L01) Višnjan Observatory, Tičan  (N45.290900 E13.749300)  Croatia.
   Observers K. Korlević, E. Pettarin. Measurer E. Pettarin. 1.0-m f/2.9
   reflector + CCD.

Orbital elements:  P113ccK
   Perihelion 2020 Jul 19.043069 TT =  1:02:01 (JD 2459049.543069)
Epoch 2020 Aug  1.0 TT = JDT 2459062.5   Earth MOID: 0.3987   Ma: 0.0009
M   2.92643049                      (J2000 ecliptic)
n   0.22585831     Peri.  356.54744
a   2.67041439     Node    10.95750
e   0.4759645      Incl.   18.29754
P   4.36           H   18.1     G   0.15   q 1.39939193  Q 3.94143686
From 15 observations 2020 July 25-Aug. 1; mean residual 0".30
Residuals in arcseconds: 
200725 F51  .01-  .06-    200726 L01  .33-  .36+    200726 I52  .71-  .45+    
200725 F51  .01+  .12-    200726 L01  .02+  .36+    200726 I52  .29-  .46-    
200725 F51  .02-  .17-    200726 L01  .19-  .13-    200801 F51  .04+  .04+    
200725 F51  .13+  .07-    200726 L01  .14+  .20-    200801 F51  .04-  .01+    
200726 L01  .29+  .25+    200726 I52  .94+  .11-    200801 F51  .01-  .07-    

Ephemerides (geocentric):
Date (UTC) HH   RA              Dec         delta   r     elong  mag
---- -- -- --  -------------   -----------  ------ ------ -----  ---
2020 08 02 01  03 49 13.333   +22 12 37.81  1.3814 1.4064  70.0 21.2
2020 08 02 02  03 49 20.405   +22 13 35.51  1.3812 1.4064  70.0 21.2
2020 08 02 03  03 49 27.478   +22 14 33.19  1.3811 1.4065  70.0 21.2
2020 08 02 04  03 49 34.550   +22 15 30.85  1.3809 1.4065  70.0 21.2
2020 08 02 05  03 49 41.623   +22 16 28.51  1.3807 1.4066  70.0 21.2
2020 08 02 06  03 49 48.696   +22 17 26.14  1.3806 1.4066  70.0 21.2
2020 08 02 07  03 49 55.769   +22 18 23.77  1.3804 1.4067  70.0 21.2
2020 08 02 08  03 50 02.843   +22 19 21.37  1.3803 1.4067  70.0 21.2
2020 08 02 09  03 50 09.916   +22 20 18.97  1.3801 1.4067  70.1 21.2
2020 08 02 10  03 50 16.990   +22 21 16.55  1.3799 1.4068  70.1 21.2
2020 08 02 11  03 50 24.064   +22 22 14.11  1.3798 1.4068  70.1 21.2
2020 08 02 12  03 50 31.138   +22 23 11.66  1.3796 1.4069  70.1 21.2
2020 08 02 13  03 50 38.213   +22 24 09.20  1.3795 1.4069  70.1 21.2
2020 08 02 14  03 50 45.287   +22 25 06.72  1.3793 1.4070  70.1 21.2
2020 08 02 15  03 50 52.362   +22 26 04.22  1.3791 1.4070  70.1 21.2
2020 08 02 16  03 50 59.437   +22 27 01.72  1.3790 1.4070  70.1 21.2
2020 08 02 17  03 51 06.512   +22 27 59.19  1.3788 1.4071  70.1 21.2
2020 08 02 18  03 51 13.587   +22 28 56.66  1.3787 1.4071  70.1 21.2
2020 08 02 19  03 51 20.663   +22 29 54.10  1.3785 1.4072  70.2 21.2
2020 08 02 20  03 51 27.738   +22 30 51.54  1.3783 1.4072  70.2 21.2
2020 08 02 21  03 51 34.814   +22 31 48.96  1.3782 1.4073  70.2 21.2
2020 08 02 22  03 51 41.890   +22 32 46.36  1.3780 1.4073  70.2 21.2
2020 08 02 23  03 51 48.966   +22 33 43.75  1.3779 1.4073  70.2 21.2
2020 08 03 00  03 51 56.043   +22 34 41.12  1.3777 1.4074  70.2 21.2
2020 08 03 01  03 52 03.119   +22 35 38.48  1.3776 1.4074  70.2 21.2
2020 08 03 02  03 52 10.196   +22 36 35.83  1.3774 1.4075  70.2 21.2
2020 08 03 03  03 52 17.273   +22 37 33.16  1.3772 1.4075  70.2 21.2
2020 08 03 04  03 52 24.350   +22 38 30.47  1.3771 1.4076  70.2 21.2
2020 08 03 05  03 52 31.427   +22 39 27.77  1.3769 1.4076  70.3 21.2
2020 08 03 06  03 52 38.505   +22 40 25.06  1.3768 1.4077  70.3 21.2
2020 08 03 07  03 52 45.582   +22 41 22.33  1.3766 1.4077  70.3 21.2
2020 08 03 08  03 52 52.660   +22 42 19.59  1.3764 1.4077  70.3 21.2
2020 08 03 09  03 52 59.738   +22 43 16.83  1.3763 1.4078  70.3 21.2
2020 08 03 10  03 53 06.816   +22 44 14.06  1.3761 1.4078  70.3 21.2
2020 08 03 11  03 53 13.895   +22 45 11.27  1.3760 1.4079  70.3 21.2
2020 08 03 12  03 53 20.973   +22 46 08.47  1.3758 1.4079  70.3 21.2
2020 08 03 13  03 53 28.052   +22 47 05.65  1.3757 1.4080  70.3 21.2
2020 08 03 14  03 53 35.131   +22 48 02.82  1.3755 1.4080  70.3 21.2
2020 08 03 15  03 53 42.210   +22 48 59.97  1.3753 1.4081  70.4 21.2
2020 08 03 16  03 53 49.289   +22 49 57.11  1.3752 1.4081  70.4 21.2
2020 08 03 17  03 53 56.368   +22 50 54.23  1.3750 1.4082  70.4 21.1
2020 08 03 18  03 54 03.448   +22 51 51.34  1.3749 1.4082  70.4 21.1
2020 08 03 19  03 54 10.528   +22 52 48.43  1.3747 1.4083  70.4 21.1
2020 08 03 20  03 54 17.608   +22 53 45.51  1.3746 1.4083  70.4 21.1
2020 08 03 21  03 54 24.688   +22 54 42.57  1.3744 1.4083  70.4 21.1
2020 08 03 22  03 54 31.768   +22 55 39.62  1.3742 1.4084  70.4 21.1
2020 08 03 23  03 54 38.848   +22 56 36.65  1.3741 1.4084  70.4 21.1
2020 08 04 00  03 54 45.929   +22 57 33.67  1.3739 1.4085  70.4 21.1